FW7144 Weather Reports


time (UTC)temp
F
wind
direction
speed
knots
gust
knots
rain 1hr
in
rain 24hr
in
rain mn
in
humidity
%
barometer
mb
20260505195605 88 302 2.6 9.6 0.00 0.00 0.00 20 1019.2
20260505195006 88 334 1.7 12.2 0.00 0.00 0.00 17 1019.2
20260505194442 87 318 1.7 12.2 0.00 0.00 0.00 19 1019.3
20260505193805 87 2 1.7 13.0 0.00 0.00 0.00 19 1019.3
20260505193207 88 251 1.7 13.9 0.00 0.00 0.00 20 1019.4
20260505192605 88 284 0.0 9.6 0.00 0.00 0.00 21 1019.3
20260505192005 88 251 1.7 11.3 0.00 0.00 0.00 22 1019.4
20260505191405 87 324 2.6 11.3 0.00 0.00 0.00 22 1019.5
20260505190805 87 338 0.0 7.8 0.00 0.00 0.00 26 1019.7
20260505190205 86 317 1.7 10.4 0.00 0.00 0.00 26 1019.7
20260505185605 85 213 3.5 9.6 0.00 0.00 0.00 24 1019.7
20260505185005 85 293 0.0 10.4 0.00 0.00 0.00 26 1019.9
20260505184405 84 314 2.6 14.8 0.00 0.00 0.00 28 1019.9
20260505183805 85 330 1.7 13.9 0.00 0.00 0.00 28 1019.9
20260505183205 84 301 2.6 7.8 0.00 0.00 0.00 27 1020.0
20260505182605 85 337 1.7 9.6 0.00 0.00 0.00 28 1020.1
20260505182005 85 348 1.7 13.9 0.00 0.00 0.00 23 1020.1
20260505181405 84 0 2.6 9.6 0.00 0.00 0.00 24 1020.2
20260505180830 83 299 3.5 11.3 0.00 0.00 0.00 28 1020.3
20260505180205 84 268 2.6 13.9 0.00 0.00 0.00 26 1020.3
20260505175605 83 312 1.7 14.8 0.00 0.00 0.00 27 1020.4
20260505175005 83 305 2.6 10.4 0.00 0.00 0.00 26 1020.4
20260505174405 82 273 1.7 9.6 0.00 0.00 0.00 28 1020.5
20260505173805 82 271 3.5 9.6 0.00 0.00 0.00 26 1020.6
20260505173205 82 328 2.6 10.4 0.00 0.00 0.00 33 1020.5
20260505172605 82 302 1.7 7.0 0.00 0.00 0.00 34 1020.6
20260505172005 81 188 0.0 7.8 0.00 0.00 0.00 31 1020.6
20260505171405 80 266 0.0 7.0 0.00 0.00 0.00 33 1020.6
20260505170805 79 274 0.0 10.4 0.00 0.00 0.00 35 1020.8
20260505170205 78 120 0.0 7.8 0.00 0.00 0.00 38 1020.7
20260505165605 78 268 0.0 11.3 0.00 0.00 0.00 40 1020.8
20260505165005 77 274 1.7 7.8 0.00 0.00 0.00 41 1020.8
20260505164405 77 283 0.0 8.7 0.00 0.00 0.00 41 1020.9
20260505163830 77 277 0.0 7.8 0.00 0.00 0.00 42 1020.9
20260505162605 75 2 3.5 9.6 0.00 0.00 0.00 43 1021.0
20260505162030 75 268 1.7 7.8 0.00 0.00 0.00 46 1021.0
20260505161405 74 262 3.5 7.0 0.00 0.00 0.00 45 1021.1
20260505160805 75 250 3.5 7.8 0.00 0.00 0.00 45 1021.0
20260505160230 74 266 2.6 10.4 0.00 0.00 0.00 47 1021.0
20260505153205 72 254 2.6 7.0 0.00 0.00 0.00 51 1021.2
20260505152606 71 297 1.7 7.8 0.00 0.00 0.00 50 1021.2
20260505152005 70 290 0.0 6.1 0.00 0.00 0.00 51 1021.1
20260505151405 70 266 1.7 4.3 0.00 0.00 0.00 51 1021.2
20260505150805 70 296 0.0 6.1 0.00 0.00 0.00 53 1021.3
20260505150205 71 283 0.0 0.0 0.00 0.00 0.00 52 1021.2
20260505140205 62 65 0.0 1.7 0.00 0.00 0.00 60 1021.3
20260505130205 52 99 1.7 3.5 0.00 0.00 0.00 74 1021.3
20260505125005 51 106 3.5 6.1 0.00 0.00 0.00 78 1021.2
20260505124405 48 141 1.7 5.2 0.00 0.00 0.00 81 1021.0
20260505123805 46 112 1.7 3.5 0.00 0.00 0.00 82 1021.0
20260505123205 45 134 1.7 2.6 0.00 0.00 0.00 81 1020.9
20260505122605 46 84 0.9 3.5 0.00 0.00 0.00 81 1020.9
20260505122005 46 98 1.7 2.6 0.00 0.00 0.00 81 1020.9
20260505121405 45 100 0.0 2.6 0.00 0.00 0.00 81 1020.8
20260505120830 46 58 0.0 3.5 0.00 0.00 0.00 80 1020.7
20260505120205 46 114 0.0 4.3 0.00 0.00 0.00 79 1020.7
20260505115605 47 98 2.6 5.2 0.00 0.00 0.00 78 1020.7
20260505115005 47 87 2.6 3.5 0.00 0.00 0.00 80 1020.6
20260505114405 46 105 2.6 4.3 0.00 0.00 0.00 80 1020.6
20260505113805 46 105 2.6 2.6 0.00 0.00 0.00 80 1020.7
20260505113205 46 129 0.0 2.6 0.00 0.00 0.00 79 1020.5
20260505112605 47 91 0.0 5.2 0.00 0.00 0.00 79 1020.5
20260505112042 47 97 1.7 4.3 0.00 0.00 0.00 80 1020.5
20260505111442 47 111 2.6 4.3 0.00 0.00 0.00 81 1020.4
20260505110842 46 140 0.0 3.5 0.00 0.00 0.00 81 1020.4
20260505110205 46 120 2.6 3.5 0.00 0.00 0.00 81 1020.4
20260505102029 48 57 2.6 4.3 0.00 0.00 0.00 77 1020.4
20260505101405 49 126 2.6 4.3 0.00 0.00 0.00 78 1020.3
20260505100805 49 88 2.6 3.5 0.00 0.00 0.00 78 1020.3
20260505100205 48 92 0.0 2.6 0.00 0.00 0.00 76 1020.2
20260505095605 49 121 0.9 4.3 0.00 0.00 0.00 75 1020.3
20260505095030 49 108 2.6 4.3 0.00 0.00 0.00 77 1020.2
20260505094405 48 91 2.6 2.6 0.00 0.00 0.00 79 1020.3
20260505093805 47 90 0.0 2.6 0.00 0.00 0.00 79 1020.3
20260505093205 48 127 0.0 4.3 0.00 0.00 0.00 79 1020.3
20260505092605 47 136 1.7 2.6 0.00 0.00 0.00 80 1020.4
20260505092017 47 120 0.0 1.7 0.00 0.00 0.00 80 1020.4
20260505091442 47 94 0.0 2.6 0.00 0.00 0.00 80 1020.4
20260505090805 47 80 1.7 3.5 0.00 0.00 0.00 80 1020.4
20260505090205 46 75 1.7 3.5 0.00 0.00 0.00 80 1020.3
20260505085605 45 93 2.6 1.7 0.00 0.00 0.00 79 1020.3
20260505085005 46 96 0.0 2.6 0.00 0.00 0.00 77 1020.2
20260505084405 48 36 0.0 1.7 0.00 0.00 0.00 76 1020.2
20260505083830 49 126 1.7 3.5 0.00 0.00 0.00 79 1020.2
20260505083205 48 111 0.0 1.7 0.00 0.00 0.00 79 1020.2
20260505082605 48 111 0.0 2.6 0.00 0.00 0.00 79 1020.2
20260505082005 47 95 0.0 2.6 0.00 0.00 0.00 78 1020.2
20260505081405 47 107 1.7 2.6 0.00 0.00 0.00 76 1020.2
20260505080805 48 86 0.0 2.6 0.00 0.00 0.00 76 1020.2
20260505080205 48 87 0.9 1.7 0.00 0.00 0.00 76 1020.2
20260505075605 49 93 0.0 2.6 0.00 0.00 0.00 73 1020.2
20260505075042 49 84 0.0 2.6 0.00 0.00 0.00 73 1020.2
20260505074405 50 65 0.0 3.5 0.00 0.00 0.00 72 1020.2
20260505073805 51 104 1.7 3.5 0.00 0.00 0.00 71 1020.1
20260505073217 51 91 0.0 2.6 0.00 0.00 0.00 71 1020.2
20260505072630 52 116 0.0 3.5 0.00 0.00 0.00 70 1020.2
20260505072005 53 100 0.0 3.5 0.00 0.00 0.00 69 1020.3
20260505071405 53 103 2.6 3.5 0.00 0.00 0.00 71 1020.3
20260505070805 53 121 0.0 1.7 0.00 0.00 0.00 71 1020.4
20260505070205 53 72 0.0 1.7 0.00 0.00 0.00 68 1020.4
20260505065629 54 84 0.0 3.5 0.00 0.00 0.00 68 1020.3
20260505065005 55 98 1.7 2.6 0.00 0.00 0.00 68 1020.4
20260505064405 55 168 0.0 3.5 0.00 0.00 0.00 66 1020.4
20260505063805 56 48 1.7 5.2 0.00 0.00 0.00 63 1020.5
20260505063217 57 81 2.6 5.2 0.00 0.00 0.00 63 1020.5
20260505062605 57 77 1.7 5.2 0.00 0.00 0.00 63 1020.4
20260505062005 56 116 2.6 3.5 0.00 0.00 0.00 65 1020.4
20260505061405 57 108 1.7 3.5 0.00 0.00 0.00 63 1020.4
20260505060805 57 93 1.7 3.5 0.00 0.00 0.00 62 1020.4
20260505060230 58 98 2.6 7.0 0.00 0.00 0.00 62 1020.4
20260505055605 58 94 4.3 6.1 0.00 0.00 0.00 62 1020.4
20260505055005 58 89 3.5 6.1 0.00 0.00 0.00 63 1020.5
20260505054430 56 80 0.0 6.1 0.00 0.00 0.00 65 1020.6
20260505053805 57 67 2.6 7.0 0.00 0.00 0.00 63 1020.5
20260505053205 58 55 5.2 7.0 0.00 0.00 0.00 63 1020.5
20260505052605 57 76 3.5 5.2 0.00 0.00 0.00 64 1020.6
20260505052005 57 96 3.5 4.3 0.00 0.00 0.00 63 1020.6
20260505051405 56 53 0.9 2.6 0.00 0.00 0.00 67 1020.6
20260505050805 56 44 0.0 2.6 0.00 0.00 0.00 67 1020.6
20260505050205 57 69 0.0 3.5 0.00 0.00 0.00 65 1020.6
20260505041405 62 95 0.0 3.5 0.00 0.00 0.00 55 1020.5
20260505040805 63 73 2.6 5.2 0.00 0.00 0.00 52 1020.5
20260505040205 64 91 0.0 3.5 0.00 0.00 0.00 51 1020.5
20260505035605 65 83 0.9 3.5 0.00 0.00 0.00 51 1020.4
20260505035017 64 54 0.0 2.6 0.00 0.00 0.00 51 1020.4
20260505034405 66 97 1.7 2.6 0.00 0.00 0.00 49 1020.4
20260505033805 66 144 0.0 6.1 0.00 0.00 0.00 49 1020.4
20260505033205 66 131 1.7 6.1 0.00 0.00 0.00 48 1020.4
20260505032605 67 134 1.7 5.2 0.00 0.00 0.00 48 1020.3
20260505032005 66 138 0.0 6.1 0.00 0.00 0.00 48 1020.3
20260505031405 67 132 1.7 6.1 0.00 0.00 0.00 47 1020.3
20260505030829 67 136 0.0 3.5 0.00 0.00 0.00 48 1020.2
20260505030229 67 74 0.9 5.2 0.00 0.00 0.00 47 1020.1
20260505025605 67 149 1.7 5.2 0.00 0.00 0.00 47 1020.0
20260505025017 67 145 1.7 5.2 0.00 0.00 0.00 47 1020.0
20260505024405 68 185 0.0 4.3 0.00 0.00 0.00 47 1020.0
20260505023805 68 142 1.7 5.2 0.00 0.00 0.00 46 1019.8
20260505023205 69 115 0.0 6.1 0.00 0.00 0.00 45 1019.7
20260505022605 69 152 1.7 3.5 0.00 0.00 0.00 45 1019.5
20260505022005 67 290 0.0 2.6 0.00 0.00 0.00 51 1019.5
20260505021405 69 53 0.0 5.2 0.00 0.00 0.00 48 1019.4
20260505020805 69 109 0.9 4.3 0.00 0.00 0.00 45 1019.3
20260505020205 70 140 1.7 8.7 0.00 0.00 0.00 45 1019.2
20260505015605 71 96 3.5 7.8 0.00 0.00 0.00 43 1019.1
20260505015005 71 99 3.5 7.8 0.00 0.00 0.00 43 1019.1
20260505014405 72 93 3.5 7.0 0.00 0.00 0.00 42 1019.1
20260505013805 72 100 4.3 7.0 0.00 0.00 0.00 42 1019.0
20260505013205 72 110 5.2 10.4 0.00 0.00 0.00 42 1019.0
20260505012605 73 149 3.5 6.1 0.00 0.00 0.00 42 1019.0
20260505012005 73 173 2.6 5.2 0.00 0.00 0.00 42 1019.0
20260505010805 74 102 0.0 8.7 0.00 0.00 0.00 42 1018.9
20260505010205 75 102 6.1 9.6 0.00 0.00 0.00 40 1018.7
20260505005605 75 104 5.2 9.6 0.00 0.00 0.00 39 1018.7
20260505005005 76 80 5.2 10.4 0.00 0.00 0.00 39 1018.6
20260505004405 76 87 5.2 11.3 0.00 0.00 0.00 38 1018.5
20260505003805 77 97 4.3 10.4 0.00 0.00 0.00 37 1018.5
20260505003205 77 100 5.2 10.4 0.00 0.00 0.00 37 1018.4
20260505002605 77 112 4.3 9.6 0.00 0.00 0.00 36 1018.4
20260505002005 77 106 3.5 9.6 0.00 0.00 0.00 37 1018.4
20260505001417 77 107 5.2 11.3 0.00 0.00 0.00 36 1018.4
20260505000805 78 76 5.2 9.6 0.00 0.00 0.00 36 1018.4
20260505000205 78 100 5.2 10.4 0.00 0.00 0.00 36 1018.4
20260504235606 78 121 5.2 12.2 0.00 0.00 0.00 35 1018.4
20260504235005 79 97 7.0 12.2 0.00 0.00 0.00 35 1018.4
20260504234405 79 103 4.3 13.9 0.00 0.00 0.00 35 1018.3
20260504233831 79 91 8.7 17.4 0.00 0.00 0.00 35 1018.4
20260504233205 79 81 7.0 14.8 0.00 0.00 0.00 35 1018.3
20260504232605 80 99 8.7 15.6 0.00 0.00 0.00 34 1018.3
20260504232005 80 95 7.0 12.2 0.00 0.00 0.00 34 1018.3
20260504231405 81 98 7.8 12.2 0.00 0.00 0.00 33 1018.4
20260504230805 81 99 7.0 13.9 0.00 0.00 0.00 33 1018.3
20260504230217 82 100 6.1 7.8 0.00 0.00 0.00 32 1018.3
20260504225605 83 127 0.0 6.1 0.00 0.00 0.00 27 1018.4
20260504225005 83 92 0.0 3.5 0.00 0.00 0.00 28 1018.4
20260504224405 83 109 1.7 7.8 0.00 0.00 0.00 26 1018.5
20260504223805 83 112 5.2 7.8 0.00 0.00 0.00 27 1018.5
20260504223205 84 137 0.0 3.5 0.00 0.00 0.00 25 1018.6
20260504222605 84 335 0.0 5.2 0.00 0.00 0.00 26 1018.6
20260504222005 84 325 0.9 5.2 0.00 0.00 0.00 27 1018.7
20260504221405 84 264 0.0 5.2 0.00 0.00 0.00 26 1018.7
20260504220805 84 298 0.0 9.6 0.00 0.00 0.00 25 1018.7
20260504220243 85 303 0.0 9.6 0.00 0.00 0.00 25 1018.7
20260504215631 86 18 0.9 6.1 0.00 0.00 0.00 25 1018.8
20260504215018 85 100 0.9 6.1 0.00 0.00 0.00 23 1018.8
20260504214405 85 335 0.0 10.4 0.00 0.00 0.00 23 1018.9
20260504213805 85 41 0.0 7.8 0.00 0.00 0.00 24 1019.0
20260504213205 84 42 1.7 6.1 0.00 0.00 0.00 24 1019.1
20260504212605 85 23 0.0 9.6 0.00 0.00 0.00 26 1019.1
20260504212005 85 27 0.0 12.2 0.00 0.00 0.00 24 1019.2
20260504211405 84 19 5.2 8.7 0.00 0.00 0.00 27 1019.2
20260504210806 83 295 1.7 7.8 0.00 0.00 0.00 25 1019.3
20260504210205 83 277 0.0 11.3 0.00 0.00 0.00 28 1019.3
20260504205605 84 265 3.5 10.4 0.00 0.00 0.00 30 1019.5
20260504205005 83 279 3.5 6.1 0.00 0.00 0.00 29 1019.6
20260504204405 83 277 0.0 7.8 0.00 0.00 0.00 30 1019.7
20260504203817 83 311 1.7 8.7 0.00 0.00 0.00 31 1019.7
20260504203230 84 303 0.0 8.7 0.00 0.00 0.00 31 1019.9
20260504202605 82 303 3.5 11.3 0.00 0.00 0.00 34 1020.0
20260504202005 81 227 0.0 9.6 0.00 0.00 0.00 33 1020.0
20260504201405 82 277 4.3 9.6 0.00 0.00 0.00 32 1020.2
20260504200817 81 317 1.7 7.0 0.00 0.00 0.00 34 1020.3
20260504200205 80 310 0.0 12.2 0.00 0.00 0.00 35 1020.4